Regional Weather Roundup
Issued by NWS

Home | Current Version | Previous Version | Text Only | Print | Product List | Glossary Off
Versions: 1 2 3 4 5 6 7 8 9 10 11 12 13 14 15 16 17 18 19 20 21 22 23 24 25 26 27 28 29 30 31 32 33 34 35 36 37 38 39 40 41 42 43 44 45 46 47 48 49 50

000
ASUS43 KLSX 242359
RWRMO

WEATHER SUMMARY FOR MISSOURI
NATIONAL WEATHER SERVICE SPRINGFIELD MO
600 PM CST SAT JAN 24 2015

NOTE: "FAIR" INDICATES FEW OR NO CLOUDS BELOW 12,000 FEET WITH NO
       SIGNIFICANT WEATHER AND/OR OBSTRUCTIONS TO VISIBILITY.
       CURRENT SKY AND/OR WEATHER CONDITIONS ARE NOT AVAILABLE FOR
       CHILLICOTHE AND FARMINGTON.

MOZ001>031-035>038-043-044-053-054-250100-
...NORTHERN AND WESTERN MISSOURI...

CITY           SKY/WX    TMP DP  RH WIND       PRES   REMARKS
KANSAS CTY INT CLOUDY    50  29  44 SW10      29.73F
6HR MIN TEMP:  50; 6HR MAX TEMP:  59;

KANSAS C DTWN  CLOUDY    55  28  35 SW9       29.73F
6HR MIN TEMP:  48; 6HR MAX TEMP:  62; 6HR PCP: TRACE;

LEE`S SUMMIT   MOCLDY    55  27  34 W9        29.75S
6HR MIN TEMP:  51; 6HR MAX TEMP:  59;

ST JOSEPH      CLOUDY    47  28  47 S3        29.72F
6HR MIN TEMP:  47; 6HR MAX TEMP:  59;

CHILLICOTHE      N/A     53  30  41 VRB5      29.72S
6HR MIN TEMP:  50; 6HR MAX TEMP:  59;

KIRKSVILLE     CLOUDY    49  30  48 SW7       29.70S
6HR MIN TEMP:  46; 6HR MAX TEMP:  53;


$$
MOZ066>068-077>081-088>096-101>105-250100-
...SOUTHWEST MISSOURI...

CITY           SKY/WX    TMP DP  RH WIND       PRES   REMARKS
SPRINGFIELD    MOCLDY    46  30  53 SW7       29.83F
6HR MIN TEMP:  46; 6HR MAX TEMP:  57;

JOPLIN         MOCLDY    51  31  46 SW12      29.85F
6HR MIN TEMP:  48; 6HR MAX TEMP:  57;


$$
MOZ032>034-039>042-045>050-055>058-069>072-250100-
...CENTRAL MISSOURI...

CITY           SKY/WX    TMP DP  RH WIND       PRES   REMARKS
COLUMBIA       CLOUDY    45  31  58 SW9       29.75F
6HR MIN TEMP:  45; 6HR MAX TEMP:  55;

JEFFERSON CITY CLOUDY    53  30  41 SW5       29.77S
6HR MIN TEMP:  47; 6HR MAX TEMP:  57;

ROLLA          MOCLDY    48  31  51 SW9       29.78R
6HR MIN TEMP:  46; 6HR MAX TEMP:  54;

SEDALIA        CLOUDY    52  33  48 SW12      29.76F
6HR MIN TEMP:  48; 6HR MAX TEMP:  56;

WHITEMAN AFB   CLOUDY    53  32  43 SW13      29.74S
OSAGE BEACH    CLOUDY    54  30  40 SW8       29.79F

$$
MOZ051-052-059>065-250100-
...EAST CENTRAL MISSOURI...

CITY           SKY/WX    TMP DP  RH WIND       PRES   REMARKS
ST LOUIS INTL  MOCLDY    49  31  49 SW6       29.77S
6HR MIN TEMP:  48; 6HR MAX TEMP:  55;

SPIRIT OF STL  CLEAR     47  31  53 SW5       29.76S
6HR MIN TEMP:  46; 6HR MAX TEMP:  55;

ST CHARLES     PTCLDY    41  33  73 S6        29.76S
6HR MIN TEMP:  41; 6HR MAX TEMP:  53;


$$
MOZ072>076-082>087-097>100-106>115-250100-
...SOUTH CENTRAL AND SOUTHEAST MISSOURI...

CITY           SKY/WX    TMP DP  RH WIND       PRES   REMARKS
CAPE GIRARDEAU CLEAR     45  35  68 S12       29.83R
6HR MIN TEMP:  42; 6HR MAX TEMP:  52;

FARMINGTON     CLEAR     50  27  40 MISG      29.83S
6HR MIN TEMP:  50; 6HR MAX TEMP:  57;

POPLAR BLUFF   CLEAR     47  34  60 S7        29.83R
6HR MIN TEMP:  47; 6HR MAX TEMP:  57;

WEST PLAINS    CLEAR     48  29  47 SW6       29.85R
6HR MIN TEMP:  47; 6HR MAX TEMP:  57;


$$



USA.gov is the U.S. government's official web portal to all federal, state and local government web resources and services.